This demonstration page uses our WeatherBlox Daily Observations layout. Learn more.

Left ArrowRight Arrow

44.8408, -93.29828

Hourly Observations for April 10, 2022

Temp ( °F °C ) Dew Point ( °F °C ) Humidity (%) Winds ( mph kmh ) Pressure ( in mb ) Visibility ( mi km ) Precip ( " mm )
12:53 am 00:53 Mostly Clear 41 5 23 -5 49 49 SE 10 17 29.81 1010 10 16 0.00 0.00
1:53 am 01:53 Clear 41 5 23 -5 49 49 SE 9 15 29.82 1010 10 16 0.00 0.00
2:53 am 02:53 Mostly Clear 38 3.3 23 -5 55 55 SE 5 7 29.82 1010 10 16 0.00 0.00
3:53 am 03:53 Mostly Clear 37 2.8 23 -5 57 57 SE 8 13 29.80 1009 10 16 0.00 0.00
4:53 am 04:53 Mostly Clear 38 3.3 22 -5.6 52 52 SE 9 15 29.78 1008 10 16 0.00 0.00
5:53 am 05:53 Mostly Cloudy 37 2.8 22 -5.6 54 54 SE 8 13 29.77 1008 10 16 0.00 0.00
6:53 am 06:53 Mostly Cloudy 38 3.3 23 -5 55 55 SE 9 15 29.75 1008 10 16 0.00 0.00
7:53 am 07:53 Mostly Cloudy 39 3.9 23 -5 53 53 ESE 9 15 29.75 1007 10 16 0.00 0.00
8:53 am 08:53 Mostly Cloudy 44 6.7 24 -4.4 45 45 ESE 9 15 29.72 1007 10 16 0.00 0.00
9:53 am 09:53 Cloudy 47 8.3 24 -4.4 41 41 SE 13 20 29.68 1005 10 16 0.00 0.00
10:53 am 10:53 Mostly Cloudy 51 10.6 24 -4.4 35 35 SSE 18 30 29.68 1005 10 16 0.00 0.00
11:53 am 11:53 Partly Cloudy 53 11.7 24 -4.4 32 32 SE 20 31 29.63 1003 10 16 0.00 0.00
12:53 pm 12:53 Mostly Cloudy 58 14.4 24 -4.4 27 27 E 17 28 29.53 1000 10 16 0.00 0.00
1:53 pm 13:53 Mostly Cloudy 59 15 23 -5 25 25 SE 22 35 29.49 999 10 16 0.00 0.00
2:53 pm 14:53 Mostly Cloudy 60 15.6 23 -5 24 24 SE 23 37 29.49 999 10 16 0.00 0.00
3:53 pm 15:53 Cloudy 58 14.4 26 -3.3 29 29 SSE 16 26 29.49 999 10 16 0.00 0.00
4:53 pm 16:53 Cloudy 59 15 28 -2.2 31 31 ESE 18 30 29.43 997 10 16 0.00 0.00
5:53 pm 17:53 Cloudy 59 15 31 -0.6 35 35 SE 14 22 29.42 996 10 16 0.00 0.00
6:53 pm 18:53 Cloudy 59 15 32 0 36 36 SE 16 26 29.40 996 10 16 0.00 0.00
7:53 pm 19:53 Cloudy 58 14.4 33 0.6 39 39 SE 18 30 29.37 995 10 16 0.00 0.00
8:53 pm 20:53 Partly Cloudy 57 13.9 35 1.7 44 44 SSE 20 31 29.37 995 10 16 0.00 0.00
9:53 pm 21:53 Mostly Cloudy 55 12.8 37 2.8 51 51 SSE 12 19 29.38 995 10 16 0.00 0.00
10:32 pm 22:32 Mostly Cloudy 52 11.1 40 4.4 64 64 SW 25 41 29.42 996 10 16 0.00 0.00
10:53 pm 22:53 Mostly Cloudy 48 8.9 37 2.8 66 66 WSW 18 30 29.42 996 10 16 0.00 0.00
11:53 pm 23:53 Partly Cloudy 44 6.7 33 0.6 65 65 WSW 18 30 29.44 997 10 16 0.00 0.00

Powered by AerisWeather